| time (UTC) | temp F | wind direction | speed MPH | gust MPH | rain 1hr in | rain 24hr in | rain mn in | humidity % | barometer mb |
| 20260510093052 | 39 | 214 | 0.0 | 0.0 | 0.00 | 0.00 | 0.00 | 79 | 1015.3 |
| 20260510091549 | 40 | 207 | 0.0 | 0.0 | 0.00 | 0.00 | 0.00 | 78 | 1015.1 |
| 20260510090045 | 40 | 210 | 0.0 | 0.0 | 0.00 | 0.00 | 0.00 | 76 | 1014.8 |
| 20260510084543 | 41 | 209 | 0.0 | 0.0 | 0.00 | 0.00 | 0.00 | 74 | 1014.7 |
| 20260510083040 | 42 | 210 | 0.0 | 0.0 | 0.00 | 0.00 | 0.00 | 73 | 1014.3 |
| 20260510081537 | 42 | 206 | 0.0 | 0.0 | 0.00 | 0.00 | 0.00 | 71 | 1014.2 |
| 20260510080034 | 43 | 205 | 0.0 | 1.0 | 0.00 | 0.00 | 0.00 | 69 | 1014.0 |
| 20260510074528 | 44 | 204 | 0.0 | 0.0 | 0.00 | 0.00 | 0.00 | 67 | 1013.9 |
| 20260510073028 | 45 | 204 | 0.0 | 2.0 | 0.00 | 0.00 | 0.00 | 65 | 1013.7 |
| 20260510071523 | 46 | 207 | 1.0 | 4.0 | 0.00 | 0.00 | 0.00 | 65 | 1013.4 |
| 20260510070056 | 46 | 226 | 1.0 | 6.0 | 0.00 | 0.00 | 0.00 | 64 | 1013.3 |
| 20260510064614 | 47 | 183 | 3.0 | 7.0 | 0.00 | 0.00 | 0.00 | 61 | 1013.2 |
| 20260510063042 | 48 | 177 | 2.0 | 9.0 | 0.00 | 0.00 | 0.00 | 60 | 1013.1 |
| 20260510061539 | 49 | 192 | 4.0 | 11.0 | 0.00 | 0.00 | 0.00 | 57 | 1012.9 |
| 20260510060037 | 50 | 186 | 7.0 | 13.0 | 0.00 | 0.00 | 0.00 | 53 | 1012.7 |
| 20260510054536 | 51 | 109 | 5.0 | 10.0 | 0.00 | 0.00 | 0.00 | 53 | 1012.3 |
| 20260510053039 | 49 | 137 | 4.0 | 10.0 | 0.00 | 0.00 | 0.00 | 59 | 1011.7 |
| 20260510051535 | 49 | 87 | 0.0 | 0.0 | 0.00 | 0.00 | 0.00 | 63 | 1011.3 |
| 20260510050021 | 50 | 87 | 0.0 | 0.0 | 0.00 | 0.00 | 0.00 | 61 | 1011.1 |
| 20260510044518 | 51 | 87 | 0.0 | 0.0 | 0.00 | 0.00 | 0.00 | 61 | 1010.8 |
| 20260510043013 | 51 | 87 | 0.0 | 0.0 | 0.00 | 0.00 | 0.00 | 60 | 1010.6 |
| 20260510041509 | 52 | 86 | 0.0 | 0.0 | 0.00 | 0.00 | 0.00 | 58 | 1010.5 |
| 20260510040007 | 53 | 86 | 0.0 | 0.0 | 0.00 | 0.00 | 0.00 | 58 | 1010.3 |
| 20260510034504 | 54 | 87 | 0.0 | 1.0 | 0.00 | 0.00 | 0.00 | 59 | 1010.1 |
| 20260510033001 | 55 | 86 | 0.0 | 0.0 | 0.00 | 0.00 | 0.00 | 53 | 1009.9 |
| 20260510031557 | 56 | 86 | 0.0 | 0.0 | 0.00 | 0.00 | 0.00 | 50 | 1009.7 |
| 20260510030059 | 57 | 86 | 0.0 | 3.0 | 0.00 | 0.00 | 0.00 | 50 | 1009.4 |
| 20260510024557 | 57 | 88 | 0.0 | 2.0 | 0.00 | 0.00 | 0.00 | 50 | 1009.2 |
| 20260510023051 | 58 | 88 | 0.0 | 1.0 | 0.00 | 0.00 | 0.00 | 49 | 1008.9 |
| 20260510021557 | 58 | 87 | 0.0 | 1.0 | 0.00 | 0.00 | 0.00 | 48 | 1008.6 |
| 20260510020044 | 59 | 87 | 0.0 | 3.0 | 0.00 | 0.00 | 0.00 | 47 | 1008.3 |
| 20260510014546 | 60 | 85 | 1.0 | 4.0 | 0.00 | 0.00 | 0.00 | 45 | 1007.9 |
| 20260510013039 | 61 | 74 | 1.0 | 6.0 | 0.00 | 0.00 | 0.00 | 44 | 1007.6 |
| 20260510011535 | 61 | 102 | 1.0 | 4.0 | 0.00 | 0.00 | 0.00 | 43 | 1007.2 |
| 20260510010038 | 62 | 129 | 3.0 | 6.0 | 0.00 | 0.00 | 0.00 | 42 | 1006.8 |
| 20260510004529 | 64 | 94 | 2.0 | 10.0 | 0.00 | 0.00 | 0.00 | 41 | 1006.6 |
| 20260510003029 | 65 | 89 | 5.0 | 12.0 | 0.00 | 0.00 | 0.00 | 40 | 1006.2 |
| 20260510001522 | 66 | 85 | 5.0 | 11.0 | 0.00 | 0.00 | 0.00 | 39 | 1005.8 |
| 20260510000021 | 67 | 98 | 6.0 | 11.0 | 0.00 | 0.00 | 0.00 | 39 | 1005.5 |
| 20260509234518 | 67 | 71 | 3.0 | 12.0 | 0.00 | 0.00 | 0.00 | 38 | 1005.2 |
| 20260509233020 | 68 | 103 | 7.0 | 16.0 | 0.00 | 0.00 | 0.00 | 38 | 1005.0 |
| 20260509231513 | 68 | 71 | 5.0 | 17.0 | 0.00 | 0.00 | 0.00 | 38 | 1004.8 |
| 20260509230011 | 69 | 97 | 8.0 | 16.0 | 0.00 | 0.00 | 0.00 | 35 | 1004.6 |
| 20260509224509 | 69 | 98 | 7.0 | 16.0 | 0.00 | 0.00 | 0.00 | 34 | 1004.3 |
| 20260509223008 | 69 | 92 | 6.0 | 24.0 | 0.00 | 0.00 | 0.00 | 34 | 1004.1 |
| 20260509221503 | 70 | 99 | 11.0 | 19.0 | 0.00 | 0.00 | 0.00 | 32 | 1003.9 |
| 20260509220001 | 70 | 26 | 11.0 | 23.0 | 0.00 | 0.00 | 0.00 | 32 | 1003.8 |
| 20260509214605 | 70 | 52 | 11.0 | 23.0 | 0.00 | 0.00 | 0.00 | 31 | 1003.7 |
| 20260509213100 | 70 | 44 | 15.0 | 25.0 | 0.00 | 0.00 | 0.00 | 31 | 1003.6 |
| 20260509211527 | 71 | 73 | 10.0 | 22.0 | 0.00 | 0.00 | 0.00 | 33 | 1003.2 |
| 20260509210027 | 71 | 61 | 12.0 | 22.0 | 0.00 | 0.00 | 0.00 | 31 | 1002.9 |
| 20260509204526 | 71 | 67 | 11.0 | 18.0 | 0.00 | 0.00 | 0.00 | 31 | 1002.9 |
| 20260509203034 | 72 | 14 | 12.0 | 25.0 | 0.00 | 0.00 | 0.00 | 29 | 1002.7 |
| 20260509201522 | 71 | 68 | 10.0 | 19.0 | 0.00 | 0.00 | 0.00 | 31 | 1002.6 |
| 20260509200025 | 72 | 73 | 15.0 | 25.0 | 0.00 | 0.00 | 0.00 | 33 | 1002.8 |
| 20260509194515 | 71 | 8 | 13.0 | 26.0 | 0.00 | 0.00 | 0.00 | 33 | 1002.6 |
| 20260509193020 | 71 | 34 | 13.0 | 22.0 | 0.00 | 0.00 | 0.00 | 34 | 1002.6 |
| 20260509191512 | 71 | 46 | 11.0 | 29.0 | 0.00 | 0.00 | 0.00 | 34 | 1002.8 |
| 20260509190011 | 70 | 79 | 14.0 | 25.0 | 0.00 | 0.00 | 0.00 | 34 | 1002.7 |
| 20260509184509 | 70 | 48 | 12.0 | 27.0 | 0.00 | 0.00 | 0.00 | 34 | 1002.7 |
| 20260509183004 | 69 | 331 | 9.0 | 23.0 | 0.00 | 0.00 | 0.00 | 38 | 1002.4 |
| 20260509181501 | 68 | 35 | 7.0 | 17.0 | 0.00 | 0.00 | 0.00 | 36 | 1002.5 |
| 20260509180101 | 67 | 12 | 8.0 | 13.0 | 0.00 | 0.00 | 0.00 | 38 | 1002.7 |
| 20260509174557 | 66 | 345 | 4.0 | 15.0 | 0.00 | 0.00 | 0.00 | 39 | 1002.8 |
| 20260509173059 | 67 | 23 | 8.0 | 14.0 | 0.00 | 0.00 | 0.00 | 38 | 1002.8 |
| 20260509171551 | 67 | 113 | 9.0 | 19.0 | 0.00 | 0.00 | 0.00 | 38 | 1003.0 |
| 20260509170051 | 66 | 25 | 9.0 | 18.0 | 0.00 | 0.00 | 0.00 | 37 | 1003.1 |
| 20260509164548 | 67 | 71 | 7.0 | 17.0 | 0.00 | 0.00 | 0.00 | 39 | 1003.1 |
| 20260509163049 | 66 | 8 | 8.0 | 14.0 | 0.00 | 0.00 | 0.00 | 44 | 1003.1 |
| 20260509161546 | 65 | 346 | 7.0 | 14.0 | 0.00 | 0.00 | 0.00 | 46 | 1003.0 |
| 20260509160042 | 65 | 19 | 8.0 | 14.0 | 0.00 | 0.00 | 0.00 | 48 | 1002.9 |
| 20260509154537 | 64 | 23 | 7.0 | 11.0 | 0.00 | 0.00 | 0.00 | 51 | 1002.9 |
| 20260509153046 | 64 | 350 | 5.0 | 13.0 | 0.00 | 0.00 | 0.00 | 54 | 1002.9 |
| 20260509151539 | 64 | 19 | 6.0 | 10.0 | 0.00 | 0.00 | 0.00 | 56 | 1002.8 |
| 20260509150039 | 63 | 21 | 7.0 | 13.0 | 0.00 | 0.00 | 0.00 | 58 | 1002.8 |
| 20260509144527 | 62 | 351 | 7.0 | 12.0 | 0.00 | 0.00 | 0.00 | 64 | 1002.7 |
| 20260509143021 | 61 | 37 | 8.0 | 12.0 | 0.00 | 0.00 | 0.00 | 66 | 1002.6 |
| 20260509141518 | 60 | 10 | 9.0 | 15.0 | 0.00 | 0.00 | 0.00 | 68 | 1002.7 |
| 20260509140015 | 59 | 39 | 7.0 | 12.0 | 0.00 | 0.00 | 0.00 | 71 | 1002.5 |
| 20260509134513 | 59 | 58 | 6.0 | 10.0 | 0.00 | 0.00 | 0.00 | 74 | 1002.6 |
| 20260509133040 | 58 | 340 | 7.0 | 12.0 | 0.00 | 0.00 | 0.00 | 76 | 1002.3 |
| 20260509131537 | 57 | 338 | 7.0 | 14.0 | 0.00 | 0.00 | 0.00 | 78 | 1002.5 |
| 20260509130032 | 57 | 349 | 7.0 | 13.0 | 0.00 | 0.00 | 0.00 | 79 | 1002.4 |
| 20260509124530 | 56 | 341 | 9.0 | 12.0 | 0.00 | 0.00 | 0.00 | 80 | 1002.7 |
| 20260509123027 | 56 | 347 | 8.0 | 12.0 | 0.00 | 0.00 | 0.00 | 81 | 1002.7 |
| 20260509121524 | 55 | 356 | 5.0 | 11.0 | 0.00 | 0.00 | 0.00 | 82 | 1002.4 |
| 20260509120025 | 54 | 349 | 8.0 | 11.0 | 0.00 | 0.00 | 0.00 | 82 | 1002.5 |
| 20260509114518 | 54 | 339 | 5.0 | 15.0 | 0.00 | 0.00 | 0.00 | 82 | 1002.5 |
| 20260509113018 | 54 | 356 | 4.0 | 10.0 | 0.00 | 0.00 | 0.00 | 82 | 1002.1 |
| 20260509111517 | 54 | 357 | 5.0 | 12.0 | 0.00 | 0.00 | 0.00 | 82 | 1002.1 |
| 20260509110048 | 54 | 334 | 7.0 | 11.0 | 0.00 | 0.00 | 0.00 | 81 | 1001.7 |
| 20260509104547 | 54 | 350 | 7.0 | 12.0 | 0.00 | 0.00 | 0.00 | 81 | 1001.8 |
| 20260509103015 | 54 | 19 | 6.0 | 11.0 | 0.00 | 0.00 | 0.00 | 82 | 1001.9 |
| 20260509101514 | 54 | 352 | 5.0 | 12.0 | 0.00 | 0.00 | 0.00 | 82 | 1002.1 |
| 20260509100011 | 54 | 342 | 5.0 | 10.0 | 0.00 | 0.01 | 0.00 | 82 | 1002.0 |
| 20260509094510 | 54 | 334 | 7.0 | 12.0 | 0.00 | 0.01 | 0.00 | 82 | 1001.8 |